User: anonymous   Login
Location: Churchill
(58.7670°N, 94.1670°W)
Time: 16:06:49
(UTC-05:00)
Language:

Cosmos 2142 Rocket - Orbit

View from above orbital plane
View from above orbital plane
View from above satellite
View from above satellite

Ground track
Ground track

The orbit data is extracted from the following two-line orbital elements,

1 21231U 91029B   18173.53621002  .00000046  00000-0  32138-4 0  9990
2 21231  82.9508 194.3316 0033908 275.5533 238.4014 13.75768944364709
Epoch (UTC): 22 June 2018 12:52:08
Eccentricity: 0.0033908
inclination: 82.9508°
perigee height: 954 km
apogee height: 1004 km
right ascension of ascending node: 194.3316°
argument of perigee: 275.5533°
revolutions per day: 13.75768944
mean anomaly at epoch: 238.4014°
orbit number at epoch: 36470

The dashed part of the orbit path shows where the satellite is in the earth's shadow,  

DLR